2021-033C (48250 NORAD) Tracking and Keplerian Element Data

This shows tracking and keplerian element data for the satellite.

Feedback or suggestion? Click here.




ElementValue
Catalog48250
Name2021-033C
Epoch Orbit456
Epoch Day147.26423532
Epoch Year2021
RAAN222.5794
Inclination97.396
Eccentricity0.0012395
Argument of Perigee156.3897
Mean Anonmoly288.5878
Mean Motion15.21023915
Decay Rate1.211E-05
L11 48250U 21033C 21147.26423532 .00001211 00000-0 57590-4 0 9995
L22 48250 97.3960 222.5794 0012395 156.3897 288.5878 15.21023915 4565

Live tracking and technical data element details for 2021-033C (NORAD 48250). 2021-033C can be tracked NOW for your location showing map with azimuth and elevation plus other details from your city location.

Track the satellite on the map from your city or location and see movement details for azimuth, elevation, latitude, longitude, range, height, and movement on the map or in text.







IsCatalogInMostPopularTable: catalog: 48250, numindb: 35
Update: records affected: 1



GetName: 48250 2021-033C

Hit Count: updated at: Sat, 31 Jul 2021 15:44:36 GMT